Location: Unspecified
(34.4950°S, 58.5160°W)
Time: 04:27:35
(UTC+00:00)

ACS3 Solar Sail - Pass Details

Date: 20 February 2026
Orbit: 885 x 974 km, 97.2° (Epoch: 11 March)

Event Time Altitude Azimuth Distance (km) Brightness Sun altitude
Exits shadow 06:08:20 15° 215° (SW) 2,354 3.9 -36.4°
Drops below altitude 10° 06:09:21 10° 210° (SSW) 2,694 4.3 -36.2°
Sets 06:12:05 0° 201° (SSW) 3,661 5.2 -35.9°
